Regional Weather Roundup
Issued by NWS

Home | Current Version | Previous Version | Text Only | Print | Product List | Glossary On
Versions: 1 2 3 4 5 6 7 8 9 10 11 12 13 14 15 16 17 18 19 20 21 22 23 24 25 26 27 28 29 30 31 32 33 34 35 36 37 38 39 40 41 42 43 44 45 46 47 48 49 50
000
ASUS45 KABQ 241610
RWRNM
NEW MEXICO REGIONAL WEATHER ROUNDUP
NATIONAL WEATHER SERVICE ALBUQUERQUE NM
1000 AM MDT SUN JUL 24 2016

NOTE: "FAIR" MEANS FEW OR NO CLOUDS BELOW 12,000 FEET AGL WITH NO
       SIGNIFICANT WEATHER OR OBSTRUCTIONS TO VISION.

      THIS PRODUCT IS RELEASED AS TWO VERSIONS.  ONE VERSION NEAR
      THE TOP OF THE HOUR CONTAINING PRELIMINARY DATA FROM ALBUQUERQUE
      AND OTHER STATIONS.  A FINAL VERSION WITH ADDITIONAL DATA IS
      ISSUED ABOUT 10 MINUTES AFTER THE HOUR.

NMZ501-503-504-510>518-241700-
NORTHWEST PLATEAU/NORTHCENTRAL MOUNTAINS

CITY           SKY/WX    TMP DP  RH WIND       PRES   REMARKS
FARMINGTON     FAIR      81  46  29 E6        30.19S
LOS ALAMOS     FAIR      75  50  40 NE8       30.35R
SANTA FE       FAIR      81  51  35 N12       30.27R
TAOS           FAIR      77  43  29 N3        30.34S
ANGEL FIRE     FAIR      65  47  52 CALM      30.44S

$$
NMZ402-403-502-505>509-241700-
WESTCENTRAL MOUNTAINS/SOUTHWEST MOUNTAINS

CITY           SKY/WX    TMP DP  RH WIND       PRES   REMARKS
GALLUP         FAIR      78  50  37 W3        30.28S
GRANTS         FAIR      78  46  31 N3        30.31R
SILVER CITY    FAIR      85  47  26 NW20      30.18R

$$
NMZ407-409-411-412-241700-
SOUTHERN DESERTS

CITY           SKY/WX    TMP DP  RH WIND       PRES   REMARKS
LORDSBURG      FAIR      86  55  35 W14G21    30.11S
DEMING         FAIR      91  48  22 W14       30.07S
LAS CRUCES     FAIR      90  43  19 S7        30.08S
HOLLOMAN AFB     N/A    N/A N/A N/A SW9       30.04
ALAMOGORDO     FAIR      90  45  20 SE5       30.07S
T OR C         FAIR      90  45  21 VRB3      30.11S

$$
NMZ519>523-241700-
CENTRAL VALLEYS/CENTRAL HIGHLANDS

CITY           SKY/WX    TMP DP  RH WIND       PRES   REMARKS
ALBUQUERQUE    FAIR      84  51  31 N7        30.18S
DOUBLE EAGLE   MOSUNNY   82  52  34 NE7       30.22S
MORIARTY ARPT  FAIR      82  41  23 CALM      30.26R
CLINES CORNERS FAIR      79  45  29 NE9       30.32S
BELEN          FAIR      85  49  28 NE8       30.17R
SOCORRO        FAIR      87  47  24 NW8       30.12F

$$
NMZ524>526-539-540-241700-
SOUTHCENTRAL MOUNTAINS

CITY           SKY/WX    TMP DP  RH WIND       PRES   REMARKS
RUIDOSO          N/A     81  41  24 SE9       30.31R

$$
NMZ527>531-241700-
NORTHEAST HIGHLANDS/NORTHEAST PLAINS

CITY           SKY/WX    TMP DP  RH WIND       PRES   REMARKS
LAS VEGAS      FAIR      75  47  36 CALM      30.31S
RATON          FAIR      79  49  34 MISG      30.26S
CLAYTON        FAIR      83  56  39 VRB3      30.17S

$$
NMZ532>537-241700-
EASTCENTRAL PLAINS

CITY           SKY/WX    TMP DP  RH WIND       PRES   REMARKS
TUCUMCARI      FAIR      91  52  26 S12       30.10S
CANNON AFB     FAIR      87  56  34 S7        30.14R
CLOVIS AIRPORT FAIR      88  57  35 S15       30.14S

$$
NMZ028-029-538-241700-
SOUTHEAST PLAINS

CITY           SKY/WX    TMP DP  RH WIND       PRES   REMARKS
ROSWELL        FAIR      87  55  33 SE10      30.07S
ARTESIA        FAIR      86  59  39 E8G15     30.06R
CARLSBAD       FAIR      88  57  34 SE7       30.03R
HOBBS          SUNNY     86  57  37 SE12      30.09S


$$




USA.gov is the U.S. government's official web portal to all federal, state and local government web resources and services.